DLH249 LSZH-EDDM

Flight info

Callsign DLH249
Flight time N/A
Altitude 17000
Route DEGES Z6 NUNRI T103 BETOS BETOS1A
Aircraft A320/M-SDE3FGHIRWY/LB1

Departure

Time N/A
Airport Zürich Airport (LSZH)

Arrival

Time 2026-05-01 07:43
Airport Munich Airport (EDDM)
Time Latitude Longitude Altitude Speed Heading
2026-05-01 07:23 47.56835 10.09922 17328 ft 385 kts 91°
2026-05-01 07:23 47.56504 10.17839 17329 ft 385 kts 91°
2026-05-01 07:24 47.56337 10.21736 17328 ft 384 kts 92°
2026-05-01 07:24 47.56162 10.25684 17327 ft 384 kts 92°
2026-05-01 07:24 47.55985 10.29625 17326 ft 384 kts 92°
2026-05-01 07:24 47.55808 10.33569 17325 ft 384 kts 92°
2026-05-01 07:25 47.55630 10.37501 17325 ft 383 kts 92°
2026-05-01 07:25 47.55449 10.41441 17323 ft 383 kts 92°
2026-05-01 07:25 47.55269 10.45381 17326 ft 383 kts 92°
2026-05-01 07:25 47.55089 10.49307 17325 ft 383 kts 91°
2026-05-01 07:26 47.55180 10.53224 17340 ft 380 kts 81°
2026-05-01 07:26 47.55775 10.57037 17341 ft 379 kts 70°
2026-05-01 07:26 47.56850 10.60579 17343 ft 377 kts 60°
2026-05-01 07:26 47.58200 10.63915 17342 ft 377 kts 59°
2026-05-01 07:27 47.59549 10.67241 17343 ft 377 kts 59°
2026-05-01 07:27 47.60897 10.70575 17337 ft 377 kts 59°
2026-05-01 07:27 47.62244 10.73920 17324 ft 377 kts 59°
2026-05-01 07:27 47.63564 10.77212 17296 ft 364 kts 59°
2026-05-01 07:28 47.64832 10.80387 17027 ft 353 kts 59°
2026-05-01 07:28 47.66076 10.83505 16553 ft 350 kts 59°
2026-05-01 07:28 47.67333 10.86577 16037 ft 347 kts 56°
2026-05-01 07:28 47.68825 10.89385 15524 ft 346 kts 48°
2026-05-01 07:29 47.70578 10.91825 15004 ft 346 kts 40°
2026-05-01 07:29 47.72460 10.94041 14497 ft 345 kts 39°
2026-05-01 07:29 47.74332 10.96256 13995 ft 343 kts 39°
2026-05-01 07:29 47.76194 10.98467 13441 ft 341 kts 39°
2026-05-01 07:30 47.78046 11.00670 12902 ft 339 kts 40°
2026-05-01 07:30 47.79856 11.02827 12401 ft 337 kts 40°
2026-05-01 07:30 47.81677 11.04999 11896 ft 334 kts 40°
2026-05-01 07:30 47.83490 11.07159 11369 ft 332 kts 40°
2026-05-01 07:31 47.85318 11.09253 10848 ft 332 kts 34°
2026-05-01 07:31 47.91234 11.14168 10347 ft 304 kts 31°
2026-05-01 07:32 47.94764 11.17089 10351 ft 280 kts 31°
2026-05-01 07:32 47.96469 11.18503 10060 ft 283 kts 31°
2026-05-01 07:33 47.99910 11.21364 9327 ft 280 kts 31°
2026-05-01 07:33 48.01607 11.22774 9019 ft 277 kts 31°
2026-05-01 07:33 48.04950 11.25552 8435 ft 273 kts 31°
2026-05-01 07:34 48.06589 11.26913 8129 ft 273 kts 31°
2026-05-01 07:34 48.09892 11.29664 7540 ft 271 kts 32°
2026-05-01 07:34 48.11538 11.31040 7239 ft 270 kts 32°
2026-05-01 07:35 48.13185 11.32417 6952 ft 270 kts 32°
2026-05-01 07:35 48.14819 11.33782 6663 ft 269 kts 32°
2026-05-01 07:35 48.16448 11.35141 6346 ft 267 kts 32°
2026-05-01 07:35 48.18074 11.36497 6036 ft 267 kts 32°
2026-05-01 07:36 48.19690 11.37845 5729 ft 266 kts 32°
2026-05-01 07:36 48.21304 11.39196 5417 ft 265 kts 32°
2026-05-01 07:36 48.22885 11.40519 5122 ft 261 kts 32°
2026-05-01 07:36 48.24475 11.41852 4809 ft 256 kts 33°
2026-05-01 07:37 48.27526 11.44414 4187 ft 250 kts 34°
2026-05-01 07:37 48.29023 11.45669 4008 ft 240 kts 35°
2026-05-01 07:37 48.30393 11.46843 3997 ft 213 kts 41°
2026-05-01 07:38 48.31386 11.48255 3994 ft 183 kts 59°
2026-05-01 07:38 48.31965 11.49839 4025 ft 167 kts 74°
2026-05-01 07:38 48.32338 11.53124 4012 ft 158 kts 86°
2026-05-01 07:39 48.32467 11.54757 4009 ft 157 kts 86°
2026-05-01 07:39 48.32596 11.56386 3951 ft 156 kts 86°
2026-05-01 07:39 48.32847 11.59561 3604 ft 143 kts 86°
2026-05-01 07:40 48.32960 11.60974 3416 ft 132 kts 85°
2026-05-01 07:40 48.33066 11.62322 3250 ft 129 kts 87°
2026-05-01 07:40 48.33171 11.63660 3078 ft 129 kts 86°
2026-05-01 07:40 48.33276 11.64997 2899 ft 129 kts 85°
2026-05-01 07:41 48.33381 11.66342 2729 ft 130 kts 85°
2026-05-01 07:41 48.33485 11.67718 2502 ft 135 kts 86°
2026-05-01 07:41 48.33731 11.70492 2013 ft 129 kts 83°
2026-05-01 07:42 48.33849 11.71878 1905 ft 139 kts 84°
2026-05-01 07:42 48.33965 11.73344 1751 ft 143 kts 87°
2026-05-01 07:42 48.34056 11.74839 1586 ft 146 kts 85°
2026-05-01 07:42 48.34171 11.76338 1498 ft 138 kts 86°
2026-05-01 07:43 48.34244 11.77685 1471 ft 118 kts 80°
2026-05-01 07:43 48.34325 11.78534 1465 ft 40 kts 80°
2026-05-01 07:43 48.34466 11.79203 1462 ft 33 kts 51°
2026-05-01 07:44 48.34577 11.79420 1464 ft 0 kts 54°
2026-05-01 07:44 48.34662 11.79547 1465 ft 0 kts
2026-05-01 07:45 48.34686 11.79549 1467 ft 8 kts
2026-05-01 07:45 48.34736 11.79552 1466 ft 7 kts 358°
2026-05-01 07:45 48.34800 11.79561 1467 ft 12 kts
2026-05-01 07:45 48.34898 11.79555 1463 ft 17 kts 354°
2026-05-01 07:46 48.35031 11.79528 1459 ft 21 kts 353°
2026-05-01 07:46 48.35117 11.79514 1467 ft 1 kts 354°
2026-05-01 07:46 48.35165 11.79468 1467 ft 3 kts 289°
2026-05-01 07:47 48.35167 11.79438 1467 ft 5 kts 270°
2026-05-01 07:47 48.35168 11.79391 1467 ft 4 kts 274°
2026-05-01 07:47 48.35167 11.79357 1467 ft 3 kts 265°
2026-05-01 07:47 48.35166 11.79342 1467 ft 0 kts 263°